Location: İstanbul
(41.0082°N, 28.9784°E)
Time: 17:29:56
(UTC+03:00)

DOVE 4 - Pass Details

Date: 27 April 2024
Orbit: 581 x 778 km, 97.7° (Epoch: 26 May)

Event Time Altitude Azimuth Distance (km) Brightness Sun altitude
Rises 23:06:46 0° 6° (N) 2,930 ? -28.7°
Reaches altitude 10° 23:08:57 10° 2° (N) 2,046 ? -28.9°
Enters shadow 23:12:44 49° 313° (NW) 861 ? -29.3°
